Location: Chiroubles
(46.1812°N, 4.6660°E)
Time: 17:09:06
(UTC+00:00)

Cosmos 2333 Rocket - Pass Details

Date: 15 August 2020
Orbit: 837 x 864 km, 70.8° (Epoch: 22 September)

Event Time Altitude Azimuth Distance (km) Brightness Sun altitude
Rises 22:49:46 0° 328° (NNW) 3,454 6.5 -28.8°
Reaches altitude 10° 22:52:19 10° 323° (NW) 2,511 5.5 -29.0°
Enters shadow 22:57:21 45° 265° (W) 1,158 2.9 -29.2°
